Temp
56 54 52 51 50 50 47 39 30 44 46 35 34 31 37 44 42 45 41 41 38 34 34 32 32 32 36 41 40 33 37 30 25 30 40 41 38 35 31 25 25 29 27 25
55 52 51 50 50 51 43 34 34 44 43 27 29 36 39 42 40 40 38 36 38 38 33 29 33 34 39 40 38 35 36 29 22 27 31 38 34 36 34 32 31 25 23 23
52 51 50 49 51 53 45 35 28 35 39 36 36 35 35 34 41 39 40 37 38 34 32 34 30 32 37 38 37 42 39 30 25 24 31 35 28 31 33 30 26 29 26 23
51 50 50 50 51 50 44 36 31 38 29 31 34 36 36 33 32 38 39 34 35 33 28 29 29 32 32 34 38 38 34 26 27 29 33 33 29 28 28 24 31 28 23 22
50 50 49 50 50 50 40 32 33 37 36 35 33 36 34 34 34 35 33 33 34 34 30 33 28 31 31 30 35 33 34 27 26 23 33 31 25 27 27 25 27 25 24 22
49 49 49 49 49 48 39 39 42 38 36 35 34 33 34 34 34 37 39 36 34 32 34 38 39 41 39 38 34 32 30 28 27 24 29 28 23 25 25 25 27 28 25 26
49 48 49 50 49 47 43 41 40 34 30 36 36 36 37 34 35 30 37 37 35 38 42 40 38 36 36 37 36 37 30 29 29 26 26 19 25 30 30 26 26 29 28 28
47 47 48 49 49 48 42 40 40 36 30 36 36 37 35 35 35 33 33 37 40 40 39 33 29 30 30 31 34 33 32 31 27 25 24 24 26 28 27 26 23 27 27 29
47 49 49 49 50 48 41 38 40 38 35 34 40 35 37 33 31 33 35 39 41 39 34 31 24 24 27 28 31 36 34 32 29 28 23 20 26 29 32 32 22 27 28 27
49 49 49 49 49 48 42 37 38 39 31 36 39 35 34 35 34 32 34 35 36 38 31 28 27 27 33 26 25 26 29 29 27 28 25 24 27 29 33 22 22 26 26 25
49 49 49 49 48 47 42 37 38 39 32 35 40 40 35 34 35 31 33 33 34 32 29 30 28 26 29 29 29 27 25 23 24 26 24 20 28 30 26 26 27 26 24 22
48 48 49 49 49 48 44 37 40 40 36 36 38 40 41 42 40 35 34 34 32 33 31 32 31 28 31 27 24 32 25 25 23 23 22 26 28 27 30 31 27 25 25 23
48 48 48 48 48 47 44 36 37 38 35 36 37 37 42 44 43 43 35 35 38 35 38 36 33 29 33 27 26 27 29 31 25 25 25 25 26 28 29 29 26 27 26 25
48 48 48 48 48 47 44 37 37 38 36 30 35 44 40 44 45 43 42 39 38 38 38 35 34 31 36 28 29 27 28 30 27 23 25 26 26 27 27 26 26 25 25 24
48 48 48 48 47 46 43 39 38 39 38 31 34 38 42 43 44 42 42 40 37 37 35 34 32 34 32 30 31 26 30 26 24 24 27 27 25 27 28 25 24 25 25 23
47 47 48 47 47 44 38 33 40 41 39 35 29 36 39 43 43 41 40 39 36 36 36 34 35 39 34 26 25 28 28 31 30 26 29 27 27 27 28 26 26 27 26 25
47 47 47 47 46 42 36 34 40 43 40 34 30 33 39 42 40 37 38 37 36 37 35 34 36 35 33 25 25 27 28 28 28 30 29 25 27 25 28 28 28 28 27 26
47 47 47 47 46 43 38 40 44 42 36 35 27 31 35 40 35 34 35 35 36 35 34 35 34 33 31 25 24 26 28 28 29 29 31 31 29 29 27 28 27 25 23 23
46 46 45 40 36 34 37 45 43 39 36 28 28 29 27 37 33 34 35 35 31 34 32 33 35 31 27 26 26 25 27 28 28 29 28 28 27 26 26 26 26 24 23 23
45 40 34 29 37 44 43 37 32 31 32 33 28 30 30 35 31 31 32 32 30 30 32 35 31 29 30 31 32 31 31 31 31 26 24 27 25 25 25 25 27 26 24 22
37 34 33 40 44 38 33 26 26 28 27 31 30 32 31 35 31 32 32 29 29 25 30 30 28 27 28 29 31 33 33 32 32 33 32 32 29 27 25 25 25 24 23 20
39 38 42 39 36 31 26 25 27 28 27 28 30 31 34 33 35 33 31 28 28 24 33 29 26 27 29 30 31 31 32 33 32 33 31 30 29 28 26 24 22 20 17 13
40 37 33 31 30 22 18 15 24 23 27 28 29 29 32 33 34 29 30 25 24 31 27 28 27 29 30 30 31 31 33 33 31 30 30 29 26 25 22 17 14 12 10 7
33 28 23 21 22 24 22 24 23 27 27 29 30 29 31 29 29 25 24 26 28 22 21 23 27 29 29 29 29 29 27 27 26 24 23 20 17 14 13 12 10 9 7 3
29 29 23 24 27 29 29 30 31 30 29 30 31 30 32 27 26 28 25 22 20 22 24 26 26 28 27 26 27 25 24 22 22 21 19 15 13 12 8 7 9 9 6 5
30 30 28 28 29 30 32 32 31 32 32 30 32 30 25 24 24 26 20 22 20 26 25 27 22 25 25 25 25 23 22 21 18 17 16 13 12 12 10 6 8 7 8 7
28 27 28 31 30 29 31 32 32 34 32 27 29 21 22 27 23 22 25 24 26 24 27 27 23 24 23 22 22 20 19 17 16 14 14 12 10 10 11 12 10 11 12 9
MSLP
1000.60 1001.96 1002.82 1004.25 1005.45 1007.14 1009.03 1011.21 1013.36 1014.73 1015.01 1015.26 1015.25 1014.34 1013.53 1013.06 1013.09 1013.10 1013.56 1014.05 1014.62 1015.33 1015.88 1016.15 1016.35 1016.22 1016.22 1016.36 1016.63 1016.97 1017.23 1017.41 1016.66 1015.75 1015.35 1015.18 1015.20 1015.07 1015.44 1015.35 1014.66 1014.88 1015.44 1016.05
998.67 1000.45 1002.15 1003.33 1004.95 1005.64 1007.82 1011.39 1013.41 1014.53 1014.53 1014.43 1014.31 1013.56 1013.24 1013.00 1013.08 1013.57 1014.15 1014.44 1014.81 1015.51 1015.97 1016.43 1016.47 1016.45 1016.56 1016.52 1016.77 1017.00 1017.31 1017.42 1016.84 1015.93 1015.98 1015.07 1015.10 1015.32 1015.55 1015.60 1015.49 1015.10 1016.03 1017.08
997.28 998.91 1001.03 1002.68 1003.82 1004.98 1006.21 1010.56 1013.11 1014.39 1014.39 1013.77 1013.08 1013.08 1013.16 1013.25 1013.50 1013.94 1014.10 1014.68 1015.13 1015.74 1016.19 1016.42 1016.65 1016.73 1016.74 1016.84 1016.95 1017.07 1017.28 1017.34 1016.95 1016.01 1015.11 1015.34 1015.64 1015.79 1015.84 1015.80 1015.22 1014.88 1016.09 1017.63
996.47 998.45 1000.50 1002.37 1003.51 1004.49 1005.54 1008.83 1010.91 1011.30 1012.44 1012.82 1012.46 1012.45 1012.55 1013.15 1013.75 1013.99 1014.31 1014.96 1015.13 1015.58 1016.19 1016.51 1016.66 1016.83 1017.04 1016.95 1017.01 1017.22 1017.41 1017.15 1016.73 1015.92 1015.55 1015.82 1015.94 1016.12 1016.30 1016.18 1015.02 1015.53 1017.13 1018.63
996.30 998.31 1000.12 1002.01 1003.30 1004.21 1005.99 1008.22 1008.97 1010.37 1010.79 1011.78 1012.19 1012.00 1012.59 1012.82 1013.65 1013.91 1014.48 1014.74 1015.22 1015.61 1015.82 1015.85 1016.19 1016.56 1017.00 1016.93 1017.11 1017.15 1017.26 1016.81 1016.43 1015.54 1014.92 1015.59 1016.37 1016.70 1016.78 1016.96 1016.65 1017.13 1018.25 1019.64
996.93 998.57 1000.39 1002.14 1003.51 1004.51 1006.04 1007.79 1007.72 1008.69 1010.82 1011.35 1011.51 1011.68 1012.11 1012.66 1013.20 1014.12 1014.15 1014.60 1015.20 1015.58 1015.49 1015.63 1015.65 1015.87 1016.23 1016.53 1016.65 1016.72 1016.85 1016.71 1016.36 1015.55 1015.43 1015.88 1016.81 1017.54 1017.81 1018.15 1018.13 1018.22 1018.77 1020.38
997.70 999.29 1001.19 1002.69 1003.85 1004.87 1005.83 1006.90 1007.22 1008.49 1010.77 1010.83 1010.82 1011.28 1011.65 1012.58 1013.15 1013.87 1014.49 1014.77 1015.01 1015.30 1015.25 1015.42 1015.63 1015.78 1015.88 1016.12 1016.07 1016.34 1016.34 1016.32 1016.16 1015.67 1015.92 1016.24 1017.54 1018.28 1018.68 1019.03 1019.63 1019.75 1020.32 1021.27
999.05 1000.87 1002.25 1003.49 1004.42 1005.17 1006.17 1006.53 1007.02 1008.18 1010.01 1010.43 1010.95 1011.29 1011.83 1012.90 1013.55 1014.14 1014.47 1014.74 1014.86 1015.02 1015.14 1015.16 1015.25 1015.37 1015.45 1015.17 1015.38 1015.62 1015.78 1015.96 1015.63 1015.13 1015.80 1017.15 1017.77 1018.54 1018.99 1019.24 1020.56 1021.12 1021.28 1021.81
1000.58 1001.85 1002.96 1003.88 1004.60 1005.20 1005.84 1007.01 1006.99 1007.46 1009.32 1010.89 1010.56 1011.36 1011.98 1013.02 1013.88 1014.47 1014.68 1014.91 1014.91 1014.97 1015.14 1015.12 1015.01 1014.60 1014.58 1014.55 1014.82 1015.07 1015.14 1015.21 1015.67 1015.44 1015.84 1016.87 1017.90 1018.98 1019.54 1019.85 1020.84 1021.75 1022.05 1022.48
1001.61 1002.56 1003.46 1004.11 1004.73 1005.23 1005.39 1006.85 1006.90 1007.41 1009.87 1011.04 1010.91 1011.47 1012.27 1013.03 1013.62 1014.34 1014.87 1015.03 1015.15 1015.15 1015.19 1015.06 1014.87 1014.51 1014.47 1014.46 1014.78 1015.13 1015.20 1015.34 1015.56 1015.57 1016.49 1017.91 1019.01 1019.58 1019.87 1020.67 1022.14 1022.45 1023.02 1023.48
1002.21 1003.01 1003.70 1004.36 1004.73 1004.86 1005.21 1007.53 1007.43 1007.42 1009.98 1011.48 1011.31 1011.61 1012.43 1013.01 1013.46 1014.12 1014.98 1015.29 1015.40 1015.45 1015.23 1015.01 1014.99 1014.80 1014.84 1014.84 1015.47 1015.69 1016.09 1016.46 1016.69 1017.00 1017.78 1019.44 1020.16 1020.01 1020.46 1021.53 1022.48 1023.35 1024.25 1024.88
1002.86 1003.49 1004.08 1004.41 1004.78 1005.08 1005.42 1007.54 1008.00 1007.90 1009.60 1011.97 1012.25 1012.31 1012.57 1012.55 1012.89 1013.69 1014.62 1014.80 1014.99 1015.11 1015.18 1015.15 1015.13 1015.05 1015.03 1015.35 1015.77 1016.38 1016.99 1017.50 1017.68 1018.98 1019.62 1020.58 1021.08 1021.18 1021.65 1022.09 1023.06 1024.23 1024.92 1025.88
1003.67 1004.08 1004.53 1004.95 1005.25 1005.56 1005.72 1007.79 1008.46 1008.62 1010.85 1012.13 1012.54 1013.09 1013.07 1012.78 1012.90 1012.98 1013.68 1014.75 1014.83 1014.99 1014.95 1014.79 1015.08 1015.24 1015.40 1015.73 1016.50 1017.01 1017.73 1018.06 1018.58 1019.71 1020.88 1021.48 1022.09 1022.58 1022.87 1023.29 1023.94 1024.88 1025.74 1026.42
1004.53 1004.94 1005.17 1005.57 1005.95 1006.14 1006.43 1008.03 1008.95 1009.01 1010.62 1012.59 1013.70 1013.13 1013.16 1013.20 1013.06 1013.20 1013.42 1014.02 1014.64 1014.84 1014.88 1014.91 1015.02 1015.33 1015.80 1016.57 1017.11 1017.71 1018.54 1018.77 1019.43 1020.54 1021.45 1022.25 1022.97 1023.34 1023.84 1024.36 1024.94 1025.58 1026.46 1026.95
1005.46 1005.74 1006.04 1006.57 1006.80 1006.98 1007.47 1008.43 1009.45 1009.47 1010.13 1012.33 1013.51 1013.45 1013.56 1013.39 1013.47 1013.76 1013.98 1014.23 1014.65 1014.91 1015.01 1015.08 1015.39 1015.74 1016.29 1017.18 1017.61 1018.37 1018.88 1019.30 1019.86 1020.09 1020.58 1021.55 1022.86 1023.83 1024.44 1024.91 1025.55 1026.10 1026.59 1027.30
1006.38 1006.60 1006.97 1007.23 1007.37 1007.64 1007.93 1009.56 1009.85 1009.87 1010.05 1011.62 1013.53 1014.32 1014.02 1013.81 1013.82 1014.10 1014.39 1014.53 1014.78 1014.95 1015.16 1015.55 1015.65 1015.84 1016.41 1017.38 1018.12 1018.93 1019.52 1019.81 1020.09 1020.72 1021.28 1021.95 1023.09 1024.23 1024.96 1025.41 1025.94 1026.51 1026.95 1027.58
1007.12 1007.38 1007.56 1007.85 1007.94 1008.05 1009.54 1010.50 1010.76 1010.30 1010.53 1011.80 1013.84 1014.32 1014.28 1014.09 1014.26 1014.73 1014.86 1014.97 1015.16 1015.19 1015.53 1015.65 1015.67 1016.05 1016.57 1017.65 1018.44 1019.22 1019.88 1020.36 1020.78 1021.41 1021.99 1023.18 1023.76 1024.23 1025.05 1025.75 1026.37 1027.00 1027.53 1028.09
1007.89 1008.01 1008.41 1008.57 1008.78 1009.28 1010.29 1010.90 1010.61 1010.62 1011.36 1012.28 1013.99 1014.71 1014.56 1014.49 1014.80 1015.23 1015.44 1015.36 1015.42 1015.67 1015.85 1015.92 1015.88 1016.44 1016.91 1017.85 1018.90 1019.60 1020.19 1020.88 1021.39 1021.93 1021.99 1022.49 1023.58 1024.51 1025.34 1026.11 1026.62 1027.14 1027.81 1028.47
1008.51 1008.85 1008.98 1009.24 1010.06 1011.11 1011.67 1011.27 1011.12 1011.16 1012.03 1013.26 1014.18 1014.69 1014.97 1014.90 1015.33 1015.48 1015.71 1015.68 1015.85 1016.21 1015.92 1015.93 1016.19 1016.58 1017.19 1017.75 1018.66 1019.63 1020.18 1020.50 1021.32 1022.17 1022.54 1023.18 1023.92 1024.81 1025.55 1026.14 1026.72 1027.24 1028.02 1028.82
1009.12 1009.25 1009.85 1011.25 1011.89 1011.76 1011.55 1011.74 1012.00 1012.44 1013.43 1013.95 1014.84 1015.24 1015.00 1015.29 1015.57 1015.77 1015.99 1016.03 1016.09 1016.00 1016.14 1016.06 1016.24 1016.70 1017.50 1018.05 1018.65 1019.44 1020.11 1020.56 1021.17 1021.83 1022.66 1023.27 1024.10 1024.85 1025.66 1026.27 1026.85 1027.65 1028.61 1029.48
1010.05 1010.72 1011.42 1012.02 1011.80 1011.95 1012.36 1013.25 1013.76 1014.32 1014.79 1014.91 1015.35 1015.28 1015.20 1015.47 1015.49 1015.61 1016.09 1016.13 1016.20 1016.12 1016.17 1016.26 1016.50 1016.94 1017.61 1018.41 1019.01 1019.63 1020.17 1020.77 1021.27 1021.60 1022.24 1023.14 1023.96 1024.72 1025.74 1026.72 1027.58 1028.44 1029.40 1030.35
1010.76 1010.86 1011.69 1011.99 1012.25 1012.72 1013.46 1014.60 1014.94 1014.90 1015.31 1015.49 1015.50 1015.44 1015.38 1015.63 1015.49 1015.65 1016.29 1016.25 1016.56 1016.37 1016.34 1016.39 1016.53 1017.15 1017.88 1018.59 1019.27 1019.92 1020.51 1021.04 1021.52 1022.03 1022.77 1023.69 1024.45 1025.33 1026.30 1027.51 1028.23 1029.31 1030.33 1031.20
1011.07 1011.41 1012.33 1012.79 1013.55 1013.90 1014.40 1015.10 1015.37 1015.45 1015.45 1015.46 1015.52 1015.71 1015.65 1015.81 1015.78 1016.22 1016.34 1016.65 1016.88 1016.72 1016.67 1016.56 1016.92 1017.54 1018.31 1019.00 1019.65 1020.34 1020.92 1021.47 1022.12 1022.86 1023.63 1024.49 1025.38 1026.21 1027.28 1028.23 1029.23 1030.23 1031.19 1031.90
1011.98 1012.52 1013.47 1014.00 1014.40 1014.52 1014.77 1014.92 1015.08 1015.24 1015.30 1015.36 1015.37 1015.76 1015.71 1016.15 1016.23 1016.88 1016.98 1017.33 1017.15 1017.30 1017.38 1017.22 1017.39 1017.90 1018.62 1019.39 1020.10 1020.78 1021.49 1022.17 1022.90 1023.75 1024.63 1025.55 1026.45 1027.49 1028.46 1029.02 1029.95 1030.86 1031.65 1032.59
1013.12 1013.26 1014.19 1014.63 1014.77 1014.74 1014.72 1014.86 1014.99 1015.25 1015.35 1015.32 1015.49 1015.87 1015.94 1016.51 1016.78 1016.98 1017.41 1017.67 1017.64 1017.73 1017.50 1017.67 1017.98 1018.46 1019.19 1019.99 1020.65 1021.31 1022.11 1023.03 1023.84 1024.66 1025.54 1026.50 1027.33 1028.16 1029.29 1030.16 1030.65 1031.23 1032.11 1032.93
1013.94 1014.24 1014.67 1014.83 1014.75 1014.85 1014.76 1014.83 1015.07 1015.22 1015.18 1015.35 1015.53 1016.09 1016.67 1017.09 1017.16 1017.25 1017.63 1017.91 1017.81 1017.58 1017.75 1018.16 1018.82 1019.25 1019.87 1020.53 1021.23 1022.02 1022.83 1023.61 1024.55 1025.39 1026.23 1027.01 1027.70 1028.47 1029.60 1030.63 1031.07 1031.63 1032.22 1032.72
1014.85 1015.29 1015.18 1014.96 1015.12 1015.22 1015.24 1015.07 1015.25 1015.27 1015.41 1015.94 1016.16 1016.40 1016.96 1017.29 1017.53 1017.73 1017.87 1017.79 1017.73 1017.91 1018.28 1018.66 1019.25 1019.79 1020.49 1021.20 1021.89 1022.70 1023.53 1024.38 1025.20 1026.01 1026.83 1027.62 1028.49 1029.13 1029.77 1030.50 1031.19 1031.60 1031.84 1032.06
Wind_Speed
28 30 40 42 41 36 8 5 5 9 7 6 3 5 6 5 6 3 3 3 4 5 7 6 5 5 2 3 4 3 2 2 5 8 8 7 8 4 3 3 3 3 6 3
34 42 42 43 40 31 10 6 5 1 1 5 7 3 3 2 4 4 4 3 3 2 5 4 5 2 2 4 5 4 5 3 4 3 4 2 3 4 4 6 7 12 6 3
42 46 45 44 41 27 8 6 7 2 3 2 12 6 5 5 3 3 3 5 4 4 3 1 2 4 1 1 5 7 3 4 6 7 6 5 5 7 11 8 7 7 3 5
46 44 44 42 32 18 7 4 5 8 14 7 5 4 6 7 6 2 3 3 4 6 4 4 4 4 2 2 3 4 6 6 9 14 16 12 8 4 4 7 16 7 6 5
45 46 45 40 25 15 7 6 7 4 13 7 7 6 7 9 5 6 4 4 9 6 5 6 7 6 4 4 3 7 5 3 1 6 11 6 7 7 3 8 8 11 12 9
41 43 41 31 23 8 5 1 3 8 12 8 7 8 9 8 9 1 6 8 6 7 11 9 8 7 6 5 4 5 3 3 2 5 14 10 4 5 4 4 11 2 2 6
40 40 35 27 19 7 3 2 4 6 6 9 9 11 6 12 5 8 5 6 4 2 1 1 1 5 9 10 13 8 3 5 3 3 5 2 5 8 9 12 8 8 11 8
37 32 28 22 17 8 3 2 4 5 5 5 8 13 8 9 4 3 5 3 3 3 1 2 2 3 5 8 9 10 11 5 3 4 2 4 5 1 1 4 5 5 2 5
31 27 21 17 14 10 4 2 1 5 10 2 9 8 9 6 4 3 3 1 2 3 2 2 4 2 2 4 4 5 3 10 6 3 4 5 4 2 2 3 2 4 1 3
26 22 19 17 16 11 5 3 3 6 6 1 2 4 6 5 4 4 3 3 2 1 2 2 1 2 1 2 2 1 2 2 6 3 3 2 3 7 2 4 4 6 6 4
24 21 19 17 15 8 6 1 4 5 5 2 4 3 5 4 2 4 4 3 1 1 2 1 1 1 1 1 2 2 2 1 1 1 2 4 7 2 3 7 9 10 10 11
22 20 17 15 13 11 6 5 2 4 7 4 2 4 3 2 5 6 2 3 3 3 3 2 2 1 1 2 2 2 1 3 2 4 3 4 5 9 6 7 12 9 11 9
21 20 19 17 14 12 9 4 2 5 4 4 5 4 3 3 4 2 5 1 4 3 1 3 2 3 1 0 1 3 3 0 4 5 4 6 6 8 8 8 11 11 11 10
20 20 20 20 19 17 11 5 2 4 5 5 1 1 4 2 3 5 4 6 4 3 1 2 2 2 2 1 2 1 1 0 7 5 6 8 6 8 10 12 12 13 10 10
19 20 22 22 23 22 13 6 4 3 5 5 3 0 5 3 4 6 5 5 3 2 2 2 2 2 2 1 1 2 1 3 3 2 9 4 7 8 10 12 12 12 13 12
18 18 16 12 10 5 5 6 4 5 3 5 4 1 3 3 5 6 4 3 3 2 2 2 1 2 2 2 1 2 1 2 1 4 5 7 13 11 10 12 11 11 11 11
16 15 17 18 18 9 6 3 2 3 2 5 4 2 2 2 3 2 2 3 2 2 2 1 1 1 3 2 2 5 5 8 12 14 17 12 13 8 11 12 12 13 12 10
16 17 15 14 13 9 6 5 6 2 5 4 4 2 2 4 2 2 2 2 2 3 1 0 1 1 1 1 3 7 9 13 11 3 2 10 13 15 13 12 12 12 11 10
13 9 7 6 7 4 1 6 5 3 5 4 3 5 4 2 2 1 2 1 2 1 1 1 2 1 3 3 13 12 14 7 10 10 13 16 16 14 13 12 11 11 10 9
6 6 5 4 2 5 3 6 5 6 4 4 3 1 4 2 0 2 1 2 1 1 1 1 0 1 2 3 10 11 12 11 14 15 14 14 14 14 13 11 9 10 9 9
4 4 3 1 3 2 3 4 4 2 3 2 1 0 3 1 2 3 1 2 1 0 1 2 1 2 3 7 10 9 9 11 10 6 10 10 13 13 12 11 11 11 11 9
2 4 3 2 3 3 5 3 1 2 2 1 3 2 1 1 0 2 1 2 0 2 1 2 2 2 7 11 10 9 10 11 8 10 12 12 12 11 11 11 11 9 8 8
2 4 4 3 3 5 4 2 2 1 2 3 2 2 1 1 2 3 2 2 2 1 1 2 0 4 9 10 9 9 9 9 9 11 11 12 11 10 8 9 7 9 8 7
4 4 5 3 3 2 2 1 3 1 2 3 2 3 2 1 3 1 3 0 0 1 1 3 1 6 7 7 7 10 9 9 10 10 10 10 9 7 6 8 8 9 8 6
4 2 4 2 1 0 0 1 2 1 2 2 3 3 3 3 3 1 2 2 2 4 3 2 1 7 8 8 7 8 9 8 8 9 9 9 9 9 8 5 6 7 7 7
3 5 3 1 2 2 2 3 3 1 2 1 3 3 3 2 1 2 2 3 3 3 2 1 3 5 6 8 7 7 7 8 8 7 8 9 9 10 10 7 6 6 7 6
3 2 2 2 3 2 2 2 2 0 3 2 1 4 2 2 2 1 3 4 2 2 1 1 4 6 7 7 7 8 8 8 8 7 8 6 7 10 10 9 7 7 7 5
Wind_Direction
212 185 156 148 144 139 112 108 106 174 173 169 183 184 184 158 145 81 82 99 116 158 166 173 207 230 205 119 132 152 160 186 259 248 286 270 235 213 164 254 195 285 297 208
193 161 154 148 149 148 125 91 101 123 120 168 186 196 171 155 123 147 163 116 129 128 165 185 208 178 85 164 152 177 165 202 291 162 243 204 132 188 264 270 254 241 253 119
163 157 153 151 152 156 96 123 121 160 213 242 170 159 157 115 61 126 112 120 98 124 166 218 151 208 276 129 197 173 130 218 223 255 285 339 295 270 285 264 244 254 319 114
154 151 150 152 152 160 99 123 174 169 184 202 163 138 137 140 154 117 143 107 165 158 160 172 218 203 299 287 248 229 178 243 225 248 266 277 277 292 334 305 239 226 108 88
149 150 149 149 143 129 78 130 146 113 160 143 140 143 179 157 152 148 172 156 161 164 172 195 183 165 195 230 204 188 186 244 249 267 266 212 84 31 14 4 48 91 111 88
143 143 143 137 135 92 103 205 59 119 149 160 149 179 159 170 131 80 153 145 143 194 229 219 223 201 183 211 203 194 185 219 271 323 131 141 103 29 49 72 27 7 110 110
133 135 140 140 141 84 105 174 121 98 152 173 181 151 131 150 143 142 148 127 145 173 60 258 226 245 237 227 232 216 228 176 199 224 210 232 108 107 105 90 49 57 99 126
126 134 140 151 162 130 126 137 118 120 116 144 129 140 121 96 97 95 138 170 155 132 108 211 219 186 178 219 227 209 209 188 225 228 119 101 169 130 205 1 65 30 104 144
134 141 143 147 157 146 90 86 242 103 120 202 128 112 136 127 128 114 101 91 113 99 113 163 212 172 223 135 135 182 166 208 203 168 176 201 89 22 338 299 96 34 27 110
129 131 138 142 150 160 121 73 21 88 102 4 108 114 135 116 108 115 133 145 116 68 140 163 206 147 252 163 82 335 19 46 205 158 115 131 30 317 262 241 114 84 75 88
110 113 116 122 125 117 84 97 0 109 87 48 41 108 127 101 119 147 152 124 65 98 127 179 139 117 59 118 64 18 53 303 71 300 145 178 357 196 259 105 104 110 96 95
98 99 99 98 98 93 97 80 345 29 79 104 48 64 48 85 156 128 110 116 139 166 120 149 125 98 120 139 142 33 148 10 115 3 48 52 17 69 93 120 129 121 117 120
91 91 90 89 89 83 96 109 22 64 94 64 48 30 18 71 74 134 117 174 151 178 207 124 111 102 299 156 108 127 96 1 91 171 112 98 79 77 82 108 114 119 126 128
89 89 87 85 88 80 81 77 340 71 102 100 64 299 44 30 56 60 68 117 85 97 86 96 87 106 358 131 102 106 38 179 125 90 119 114 95 107 116 110 112 112 110 112
90 89 90 89 87 87 86 86 39 59 113 132 132 131 13 79 90 81 71 93 111 101 94 77 93 106 145 55 118 137 199 148 182 195 168 114 129 138 134 129 129 128 124 113
90 89 88 75 65 83 59 50 357 12 45 103 97 311 27 77 83 73 64 69 77 77 87 92 132 96 120 140 182 141 102 94 120 142 123 115 126 132 137 132 132 125 119 119
87 87 83 77 72 69 62 119 199 353 50 87 86 77 21 3 75 49 43 37 66 61 92 88 110 115 89 121 186 143 131 109 107 113 115 116 152 148 139 133 127 116 110 110
94 86 87 83 81 69 35 9 20 54 87 64 102 81 76 12 63 82 352 64 36 33 77 96 84 138 75 152 169 135 130 125 122 129 166 144 131 134 133 134 135 124 120 118
83 78 87 52 39 48 318 323 30 42 93 101 82 138 148 4 66 63 67 29 73 334 89 136 190 133 235 171 160 157 155 159 141 121 121 133 138 140 143 145 141 127 125 122
56 41 43 46 20 312 342 7 30 21 358 35 81 283 117 94 298 85 100 7 97 187 95 139 297 238 112 147 162 162 169 140 143 136 149 149 149 152 153 152 140 133 132 128
41 49 56 121 296 52 40 51 53 337 61 33 97 127 117 14 115 118 323 127 6 55 116 250 211 253 174 158 150 156 155 154 149 140 148 160 156 151 147 139 134 130 133 138
89 113 102 50 31 45 74 54 36 30 106 132 126 145 97 120 88 102 152 94 130 197 292 242 251 123 146 155 154 155 151 154 137 137 138 141 142 143 136 142 131 126 124 125
39 55 70 43 0 56 87 140 98 110 177 170 147 100 72 89 59 68 89 89 216 329 194 266 324 151 154 153 148 148 150 140 123 123 123 125 122 118 134 125 108 119 116 115
56 63 66 77 39 60 174 163 174 203 141 137 117 88 81 76 65 95 87 161 20 50 264 242 212 177 148 138 137 142 143 138 133 127 125 121 119 112 102 113 128 131 132 141
56 51 65 62 259 336 219 210 136 60 129 120 83 63 46 32 72 62 100 57 254 213 233 240 230 154 144 142 139 133 133 132 130 133 129 129 130 125 114 117 125 115 117 143
43 45 86 50 54 24 39 42 75 151 101 77 56 92 76 58 145 177 196 140 236 256 224 249 170 147 144 144 141 130 127 129 127 124 132 134 135 137 136 132 128 133 152 162
44 28 354 76 74 59 44 27 41 68 67 78 85 75 158 128 72 261 192 208 229 220 246 225 183 163 153 135 123 129 128 126 128 126 127 117 112 120 131 143 161 169 170 173